Weather Roundup
Issued by NWS

Home | Current Version | Previous Version | Graphics & Text | Print | Product List | Glossary Off
Versions: 1 2 3 4 5 6 7 8 9 10 11 12 13 14 15 16 17 18 19 20 21 22 23 24 25 26 27 28 29 30 31 32 33 34 35 36 37 38 39 40 41 42 43 44 45 46 47 48 49 50

102
NZUS93 KARX 182210
HRRWXR

CURRENT HOURLY OBSERVATIONS ACROSS
MUCH OF THE UPPER MISSISSIPPI VALLEY
NATIONAL WEATHER SERVICE LA CROSSE WI
400 PM CST SAT NOV 18 2017


...SOUTHEAST MINNESOTA...


CITY           SKY/WX    TMP DP  RH WIND       PRES   REMARKS
ROCHESTER      CLOUDY    33  24  69 NW25G31   29.84R WCI  20
ROCHESTER/MAYO CLOUDY    34  22  62 W18G36    29.83R WCI  23
WINONA         PTCLDY    37  28  70 NW14G25   29.81R WCI  29
AUSTIN         CLOUDY    32  21  64 NW22G31   29.86R WCI  19
ALBERT LEA     PTCLDY    30  19  64 NW18G26   29.89R WCI  18
DODGE CENTER   CLOUDY    30  21  69 NW23G29   29.86R WCI  17
PRESTON        PTCLDY    34  24  65 NW22G28   29.81R WCI  23
OWATONNA       CLEAR     32  21  64 NW23G30   29.89R WCI  19
FARIBAULT      CLEAR     32  21  64 W17G23    29.90R WCI  21
$$

...ELSEWHERE IN MINNESOTA...


CITY           SKY/WX    TMP DP  RH WIND       PRES   REMARKS
MINNEAPOLIS    PTCLDY    32  19  58 NW17G29   29.89R WCI  21
INTNL FALLS    LGT SNOW  17  10  74 W14       29.90R WCI   3
DULUTH         MOCLDY    23  14  68 NW15G29   29.81R WCI  10
RED WING       CLOUDY    36  18  48 NW15G23   29.86R WCI  26
REDWOOD FALLS  CLEAR     30  14  51 NW17G30   29.99R WCI  18
MANKATO        CLEAR     31  20  63 NW23G29   29.94R WCI  18
WORTHINGTON    CLEAR     33  15  47 NW18G31   29.99R WCI  22
FAIRMONT       CLEAR     32  21  64 NW22G30   29.96R WCI  19
$$

...SOUTHWEST WISCONSIN...


CITY           SKY/WX    TMP DP  RH WIND       PRES   REMARKS
LA CROSSE      CLEAR     41  28  60 NW15      29.76R
PRAIRIE DU CHI CLEAR     42  27  54 NW20G25   29.75R
BOSCOBEL       PTCLDY    44  30  57 VRB6      29.74R
LONE ROCK      CLEAR     40  32  73 NW9G18    29.72R WCI  34
PLATTEVILLE    CLEAR     40  33  78 NW15      29.72R WCI  31
FORT MC COY    PTCLDY    39  29  67 NW10      29.75R WCI  32
CAMP DOUGLAS   MOCLDY   N/A N/A N/A NW14G24   29.73R
MAUSTON-NEW LI CLOUDY    39  31  73 NW13G20   29.70R WCI  32
VIROQUA        FAIR      38  32  77 NW18G26   29.72R WCI  29
WIS DELLS      PTCLDY    38  29  69 NW7       29.69R WCI  32
$$

...ELSEWHERE IN WISCONSIN...


CITY           SKY/WX    TMP DP  RH WIND       PRES   REMARKS
MILWAUKEE      CLOUDY    40  33  76 N18G25    29.60R WCI  31
MADISON        MOCLDY    39  31  72 N15G25    29.67R WCI  31
GREEN BAY      CLOUDY    38  32  79 NW16G22   29.64R WCI  29
EAU CLAIRE     MOCLDY    34  21  59 NW10G20   29.79R WCI  26
BLACK RVR FLS  FAIR      39  25  56 NW13G18   29.75R WCI  32
MEDFORD        CLOUDY    31  24  74 NW13G20   29.71R WCI  22
WAUSAU         CLOUDY    34  26  72 NW15G23   29.68R WCI  24
WIS RAPIDS     MOCLDY    37  27  67 N10G22    29.71R WCI  30
MARSHFIELD     PTCLDY    34  25  69 NW15G23   29.69R WCI  24
RICE LAKE      CLOUDY    31  20  63 W9        29.83R WCI  23
$$

...NORTHEAST IOWA...


CITY           SKY/WX    TMP DP  RH WIND       PRES   REMARKS
WATERLOO       CLEAR     38  27  64 NW28G36   29.83R WCI  26
DUBUQUE        CLEAR     40  31  70 NW16      29.73R WCI  31
DECORAH        CLEAR     39  28  65 NW17G26   29.77R WCI  30
MASON CITY     CLOUDY    32  21  64 NW26G39   29.91R WCI  18
CHARLES CITY   PTCLDY    37  28  70 NW18G32   29.85R WCI  27
OELWEIN        PTCLDY    39  34  81 NW26G32   29.80R WCI  28
$$

...ELSEWHERE IN IOWA...


CITY           SKY/WX    TMP DP  RH WIND       PRES   REMARKS
DES MOINES     MOCLDY    43  28  55 NW23G38   29.94R
IOWA CITY      PTCLDY    45  31  58 NW16G25   29.80R
FORT DODGE     CLEAR     36  23  59 NW12G18   29.97R WCI  28
MARSHALLTOWN   CLEAR     38  29  70 NW21G32   29.89R WCI  28
CEDAR RAPIDS   CLEAR     42  32  67 NW21G29   29.79R
$$

...NORTHERN ILLINOIS...


CITY           SKY/WX    TMP DP  RH WIND       PRES   REMARKS
CHICAGO-OHARE  CLOUDY    40  34  79 N20G28    29.57R WCI  30
CHICAGO-MIDWAY CLOUDY    40  36  86 N24G32    29.57R WCI  29
MOLINE         MOCLDY    42  33  70 NW20G28   29.74R
ROCKFORD       CLOUDY    38  33  82 N18G28    29.66R WCI  28
PEORIA         CLOUDY    41  37  86 NW17G28   29.70R
$$

NOTE: "FAIR" INDICATES FEW OR NO CLOUDS BELOW 12,000 FEET WITH NO
SIGNIFICANT WEATHER AND/OR OBSTRUCTIONS TO VISIBILITY. WIND
SPEEDS ARE IN MILES-PER-HOUR.




USA.gov is the U.S. government's official web portal to all federal, state and local government web resources and services.